User: anonymous   Login
Location: Koslow
(50.3020°N, 18.5663°E)
Time: 17:15:14
(UTC+00:00)
Language:

Cosmos 489 Rocket - Orbit

View from above orbital plane
View from above orbital plane
View from above satellite
View from above satellite

Ground track
Ground track

The orbit data is extracted from the following two-line orbital elements,

1  6020U 72035B   21216.13506632  .00000026  00000-0  48324-4 0  9996
2  6020  74.0208 272.9929 0021890 266.9271 111.9257 13.78848344477143
Epoch (UTC): 04 August 2021 03:14:29
Eccentricity: 0.0021890
inclination: 74.0208°
perigee height: 952 km
apogee height: 984 km
right ascension of ascending node: 272.9929°
argument of perigee: 266.9271°
revolutions per day: 13.78848344
mean anomaly at epoch: 111.9257°
orbit number at epoch: 47714

The dashed part of the orbit path shows where the satellite is in the earth's shadow,  

DLR